FW5335 Weather Reports


Display with metric or nautical units.
time (UTC)temp
F
wind
direction
speed
MPH
gust
MPH
rain 1hr
in
rain 24hr
in
rain mn
in
humidity
%
barometer
mb
20191020235518 50 68 2.0 8.0 0.00 0.00 0.00 88 1017.2
20191020234517 50 45 3.0 7.0 0.00 0.00 0.00 88 1017.2
20191020233516 50 45 4.0 10.0 0.00 0.00 0.00 88 1017.0
20191020232516 50 68 4.0 9.0 0.00 0.00 0.00 89 1017.2
20191020231516 50 45 3.0 9.0 0.00 0.00 0.00 88 1017.1
20191020230516 50 45 4.0 9.0 0.00 0.00 0.00 88 1017.1
20191020225516 50 45 3.0 7.0 0.00 0.00 0.00 88 1017.2
20191020224516 50 68 4.0 9.0 0.00 0.00 0.00 88 1017.0
20191020223516 50 45 3.0 6.0 0.00 0.00 0.00 88 1016.8
20191020222517 50 45 4.0 10.0 0.00 0.00 0.00 88 1016.8
20191020221516 50 68 3.0 8.0 0.00 0.00 0.00 88 1016.9
20191020220516 50 45 3.0 8.0 0.00 0.00 0.00 88 1016.9
20191020215516 50 68 2.0 11.0 0.00 0.00 0.00 88 1017.0
20191020214516 50 45 3.0 7.0 0.00 0.00 0.00 88 1016.9
20191020213516 49 45 2.0 6.0 0.00 0.00 0.00 88 1016.8
20191020212517 49 45 4.0 10.0 0.00 0.00 0.00 88 1016.7
20191020211516 50 45 3.0 7.0 0.00 0.00 0.00 87 1016.5
20191020210516 50 45 4.0 9.0 0.00 0.00 0.00 86 1016.5
20191020205516 49 68 4.0 11.0 0.00 0.00 0.00 86 1016.3
20191020204516 49 45 5.0 12.0 0.00 0.00 0.00 87 1016.3
20191020203516 49 45 5.0 12.0 0.00 0.00 0.00 87 1016.1
20191020202516 50 45 5.0 10.0 0.00 0.00 0.00 85 1016.0
20191020201516 50 45 5.0 17.0 0.00 0.00 0.00 83 1015.9
20191020200516 50 45 4.0 16.0 0.00 0.00 0.00 82 1015.8
20191020195516 50 45 5.0 11.0 0.00 0.00 0.00 80 1015.7
20191020194516 50 23 3.0 8.0 0.00 0.00 0.00 79 1015.5
20191020193516 50 45 3.0 10.0 0.00 0.00 0.00 79 1015.5
20191020192516 50 45 3.0 7.0 0.00 0.00 0.00 78 1015.6
20191020191516 50 45 3.0 9.0 0.00 0.00 0.00 78 1015.8
20191020190518 50 45 3.0 5.0 0.00 0.00 0.00 78 1015.7
20191020185516 51 45 3.0 7.0 0.00 0.00 0.00 78 1015.6
20191020184516 51 45 4.0 9.0 0.00 0.00 0.00 77 1015.7
20191020183516 51 45 3.0 9.0 0.00 0.00 0.00 77 1015.7
20191020182516 51 45 4.0 10.0 0.00 0.00 0.00 77 1015.5
20191020181516 51 45 4.0 9.0 0.00 0.00 0.00 77 1015.4
20191020180516 51 338 3.0 9.0 0.00 0.00 0.00 77 1015.2
20191020175516 51 45 4.0 9.0 0.00 0.00 0.00 77 1015.1
20191020174516 51 45 4.0 10.0 0.00 0.00 0.00 77 1014.8
20191020173516 51 45 4.0 10.0 0.00 0.00 0.00 76 1014.7
20191020172516 51 45 5.0 13.0 0.00 0.00 0.00 77 1014.6
20191020171516 51 45 5.0 11.0 0.00 0.00 0.00 76 1014.4
20191020170516 51 45 3.0 9.0 0.00 0.00 0.00 76 1014.3
20191020165516 51 45 4.0 9.0 0.00 0.00 0.00 75 1014.5
20191020164516 52 68 4.0 9.0 0.00 0.00 0.00 75 1014.1
20191020163516 52 45 5.0 13.0 0.00 0.00 0.00 74 1013.9
20191020162516 52 45 5.0 15.0 0.00 0.00 0.00 74 1013.9
20191020161516 52 45 4.0 13.0 0.00 0.00 0.00 74 1013.7
20191020160516 52 68 4.0 12.0 0.00 0.00 0.00 74 1013.7
20191020155516 52 23 4.0 11.0 0.00 0.00 0.00 73 1013.8
20191020154516 53 45 5.0 13.0 0.00 0.00 0.00 73 1013.8
20191020153516 53 45 4.0 9.0 0.00 0.00 0.00 73 1013.7
20191020152516 53 338 4.0 13.0 0.00 0.00 0.00 73 1013.6
20191020151516 53 45 3.0 6.0 0.00 0.00 0.00 74 1013.4
20191020150516 53 45 3.0 8.0 0.00 0.00 0.00 72 1013.3
20191020145516 53 45 5.0 12.0 0.00 0.00 0.00 72 1013.2
20191020144516 54 45 5.0 12.0 0.00 0.00 0.00 72 1012.9
20191020143516 54 45 4.0 11.0 0.00 0.00 0.00 72 1013.0
20191020142516 54 45 3.0 10.0 0.00 0.00 0.00 73 1013.0
20191020141516 54 45 5.0 14.0 0.00 0.06 0.00 72 1013.0
20191020140516 54 45 5.0 13.0 0.00 0.08 0.00 72 1012.9
20191020135516 54 45 3.0 8.0 0.00 0.08 0.00 73 1012.8
20191020134516 54 68 6.0 13.0 0.00 0.08 0.00 72 1012.8
20191020133515 53 338 4.0 10.0 0.00 0.08 0.00 73 1012.9
20191020132516 54 68 4.0 11.0 0.00 0.08 0.00 73 1012.8
20191020131516 53 45 5.0 11.0 0.00 0.08 0.00 74 1012.6
20191020130515 53 338 5.0 15.0 0.00 0.08 0.00 75 1012.8
20191020125516 53 338 5.0 12.0 0.00 0.08 0.00 76 1012.8
20191020124516 53 338 4.0 11.0 0.00 0.08 0.00 76 1012.8
20191020123515 53 45 4.0 10.0 0.00 0.08 0.00 76 1012.7
20191020122516 53 45 4.0 12.0 0.00 0.08 0.00 76 1012.6
20191020121515 54 338 5.0 15.0 0.00 0.08 0.00 73 1012.5
20191020120516 54 45 4.0 9.0 0.00 0.08 0.00 74 1012.5
20191020115515 54 45 5.0 10.0 0.00 0.08 0.00 74 1012.4
20191020114515 54 45 5.0 12.0 0.00 0.08 0.00 75 1012.5
20191020113516 53 338 6.0 12.0 0.00 0.08 0.00 75 1012.5
20191020112515 54 45 3.0 8.0 0.00 0.08 0.00 76 1012.7
20191020111516 54 45 5.0 10.0 0.00 0.08 0.00 75 1012.7
20191020110515 53 45 5.0 11.0 0.00 0.08 0.00 76 1012.8
20191020105515 52 45 5.0 11.0 0.00 0.08 0.00 78 1012.7
20191020104515 52 45 4.0 10.0 0.00 0.08 0.00 78 1012.8
20191020103515 52 45 5.0 11.0 0.00 0.08 0.00 78 1012.5
20191020102515 52 45 4.0 11.0 0.00 0.08 0.00 79 1012.7
20191020101515 51 68 4.0 11.0 0.00 0.08 0.00 80 1012.6
20191020100515 51 45 4.0 10.0 0.00 0.08 0.00 80 1012.5
20191020095515 50 45 4.0 12.0 0.00 0.08 0.00 80 1012.3
20191020094515 50 45 4.0 10.0 0.00 0.08 0.00 80 1012.1
20191020093515 50 68 2.0 5.0 0.00 0.08 0.00 82 1012.1
20191020092515 49 338 3.0 9.0 0.00 0.08 0.00 83 1011.9
20191020091515 49 68 4.0 10.0 0.00 0.08 0.00 82 1011.6
20191020090515 50 45 4.0 9.0 0.00 0.08 0.00 81 1011.4
20191020085515 50 45 4.0 11.0 0.00 0.08 0.00 81 1011.2
20191020084516 50 45 4.0 9.0 0.00 0.08 0.00 81 1011.3
20191020083515 50 45 3.0 12.0 0.00 0.08 0.00 82 1011.2
20191020082515 50 45 3.0 9.0 0.00 0.08 0.00 83 1011.6
20191020081515 49 338 1.0 5.0 0.00 0.08 0.00 84 1011.3
20191020080515 49 0.0 1.0 0.00 0.08 0.00 87 1011.3
20191020075515 48 0.0 1.0 0.00 0.08 0.00 88 1011.1
20191020074515 46 0.0 0.0 0.00 0.08 0.00 91 1011.1
20191020073515 45 0.0 1.0 0.00 0.08 0.00 91 1011.0
20191020072515 45 0.0 0.0 0.00 0.08 0.00 92 1010.8
20191020071515 45 0.0 0.0 0.00 0.08 0.00 91 1010.7
20191020070515 45 0.0 0.0 0.00 0.08 0.00 90 1010.6
20191020065515 45 0.0 0.0 0.00 0.08 0.00 90 1010.4
20191020064517 46 0.0 1.0 0.00 0.08 0.00 90 1010.4
20191020063517 46 0.0 1.0 0.00 0.08 0.00 90 1010.2
20191020062517 46 0.0 1.0 0.00 0.08 0.00 90 1010.0
20191020061517 46 338 1.0 3.0 0.00 0.08 0.00 90 1009.9
20191020060517 46 338 1.0 3.0 0.00 0.08 0.00 91 1009.8
20191020055517 46 0.0 1.0 0.00 0.08 0.00 91 1009.7
20191020054517 47 0.0 1.0 0.00 0.08 0.00 91 1009.8
20191020053517 47 0.0 0.0 0.00 0.08 0.00 90 1009.7
20191020052517 47 0.0 1.0 0.00 0.08 0.00 90 1009.6
20191020051517 48 0.0 0.0 0.00 0.08 0.00 89 1009.4
20191020050517 48 338 1.0 2.0 0.00 0.08 0.00 90 1009.4
20191020045517 48 338 2.0 3.0 0.00 0.08 0.00 90 1009.2
20191020044517 48 45 2.0 4.0 0.00 0.08 0.00 90 1009.1
20191020043517 48 45 2.0 5.0 0.00 0.08 0.00 91 1009.1
20191020042517 47 45 3.0 7.0 0.00 0.08 0.00 94 1008.8
20191020041517 46 203 1.0 3.0 0.00 0.08 0.00 96 1008.7
20191020040517 46 0.0 1.0 0.00 0.08 0.00 95 1008.6
20191020035517 46 0.0 0.0 0.00 0.08 0.00 95 1008.3
20191020034517 45 0.0 0.0 0.00 0.08 0.00 95 1008.2
20191020033517 45 0.0 3.0 0.00 0.08 0.00 95 1008.1
20191020032517 45 0.0 0.0 0.00 0.08 0.00 95 1008.1
20191020031517 45 0.0 0.0 0.00 0.08 0.00 95 1008.1
20191020030517 45 0.0 0.0 0.00 0.08 0.00 95 1007.9
20191020025517 45 0.0 0.0 0.00 0.08 0.00 95 1008.0
20191020024517 45 0.0 1.0 0.00 0.08 0.00 95 1007.8
20191020023517 45 0.0 2.0 0.00 0.08 0.00 95 1007.7
20191020022517 45 0.0 1.0 0.00 0.08 0.00 95 1007.6
20191020021516 45 0.0 1.0 0.00 0.08 0.00 95 1007.6
20191020020517 45 0.0 0.0 0.00 0.08 0.00 95 1007.6
20191020015516 45 0.0 0.0 0.00 0.08 0.00 95 1007.6
20191020014516 45 203 1.0 3.0 0.00 0.08 0.00 95 1007.7
20191020013517 45 0.0 2.0 0.00 0.08 0.00 95 1007.2
20191020012516 45 0.0 0.0 0.00 0.08 0.00 94 1007.1
20191020011516 45 0.0 0.0 0.00 0.08 0.00 95 1007.0
20191020010516 44 0.0 0.0 0.00 0.08 0.00 95 1006.8
20191020005516 44 0.0 1.0 0.00 0.08 0.00 95 1006.6
20191020004516 44 225 2.0 3.0 0.00 0.08 0.00 95 1006.7
20191020003516 44 225 1.0 3.0 0.00 0.08 0.00 95 1006.8
20191020002516 44 270 1.0 2.0 0.00 0.08 0.00 95 1006.8
20191020001516 44 0.0 1.0 0.00 0.08 0.00 95 1006.6
20191020000516 43 0.0 2.0 0.00 0.08 0.00 95 1006.6